Content
SEND FEEDBACK

Daily
Averages
Monthly
Summary
United States of America

CHICAGO, ILLINOIS


Home > North America > United States > Illinois
Elevation: 674 feet     Latitude: 41 59N     Longitude: 087 54W

WEATHER
 
SELECT A DAY
Number of Records: 194,984;   Date Range: 7/8/95 - 8/28/14
 
SHARE

PRINT THIS DATA

[ ← Previous Day ]
WEATHER ALMANAC - OCTOBER 8, 2013
[ Next Day → ]
[ °C ]   °F
We're sorry. There is no daily almanac available for Chicago, Illinois on October 8, 2013.
WEATHER BY HOUR - OCTOBER 8, 2013
[ °C ]   °F
Local TimeTemperatureDewpointHumidityBarometerVisibilityWind DirectionWind SpeedGust SpeedPrecipitationEventsConditions
1:52 AM48.0 °F44.1 °F86 %30.12 in10.0 miCalmClear
2:52 AM48.9 °F45.0 °F86 %30.11 in10.0 miCalmClear
3:52 AM46.0 °F43.0 °F89 %30.12 in10.0 miCalmClear
4:52 AM46.0 °F43.0 °F89 %30.14 in10.0 miCalmClear
5:52 AM46.0 °F42.1 °F86 %30.15 in10.0 miCalmClear
6:52 AM46.0 °F43.0 °F89 %30.17 in10.0 miCalmClear
7:52 AM48.9 °F45.0 °F86 %30.19 in9.0 miCalmClear
8:52 AM55.0 °F48.0 °F77 %30.20 in9.0 miCalmClear
9:52 AM61.0 °F48.9 °F64 %30.21 in10.0 miCalmClear
10:52 AM66.9 °F50.0 °F54 %30.20 in10.0 miSouth (170°)4.6 mphClear
11:52 AM71.1 °F48.9 °F45 %30.19 in10.0 miSSW (200°)5.8 mphClear
12:52 PM73.0 °F50.0 °F44 %30.18 in10.0 miSSW (200°)4.6 mphClear
1:52 PM75.0 °F46.0 °F36 %30.16 in10.0 miSouth (190°)11.5 mphClear
2:52 PM75.9 °F45.0 °F33 %30.15 in10.0 miSW (220°)10.4 mphClear
3:52 PM75.0 °F46.9 °F37 %30.15 in10.0 miSouth (170°)8.1 mphClear
4:52 PM73.9 °F48.0 °F40 %30.14 in10.0 miSouth (170°)8.1 mphClear
5:52 PM71.1 °F46.9 °F42 %30.15 in10.0 miSouth (170°)6.9 mphClear
6:52 PM66.9 °F51.1 °F57 %30.16 in10.0 miESE (120°)4.6 mphClear
7:52 PM63.0 °F50.0 °F63 %30.16 in10.0 miSE (130°)4.6 mphClear
8:52 PM60.1 °F48.9 °F67 %30.17 in10.0 miCalmClear
9:52 PM57.9 °F50.0 °F75 %30.18 in10.0 miCalmClear
10:52 PM57.0 °F48.0 °F72 %30.18 in10.0 miSSE (160°)4.6 mphClear
11:52 PM55.9 °F46.9 °F72 %30.18 in10.0 miSSE (160°)5.8 mphClear
Hourly data recorded from KPWK, located miles away from Chicago, Illinois







STORIES FROM OUR PARTNERS